date,time,SUV Intensity [MED/Hr],UV Index,Daily total [MED],Since Last [MED]
11/10/2023,00:02:53,0.000,0.0,0.0,0.0
11/10/2023,00:03:52,-0.000,0.0,0.0,0.0
11/10/2023,00:04:52,0.000,0.0,0.0,0.0
11/10/2023,00:05:53,0.000,0.0,0.0,0.0
11/10/2023,00:06:52,0.000,0.0,0.0,0.0
11/10/2023,00:07:53,-0.000,0.0,0.0,0.0
11/10/2023,00:08:52,0.000,0.0,0.0,0.0
11/10/2023,00:09:52,0.000,0.0,0.0,0.0
11/10/2023,00:10:52,0.000,0.0,0.0,0.0
11/10/2023,00:11:53,0.000,0.0,0.0,0.0
11/10/2023,00:12:53,0.000,0.0,0.0,0.0
11/10/2023,00:13:53,0.000,0.0,0.0,0.0
11/10/2023,00:14:52,0.000,0.0,0.0,0.0
11/10/2023,00:15:52,0.000,0.0,0.0,0.0
11/10/2023,00:16:52,-0.001,0.0,0.0,0.0
11/10/2023,00:17:53,-0.001,0.0,0.0,0.0
11/10/2023,00:18:53,0.000,0.0,0.0,0.0
11/10/2023,00:19:52,-0.001,0.0,0.0,0.0
11/10/2023,00:20:52,-0.000,0.0,0.0,0.0
11/10/2023,00:21:53,-0.000,0.0,0.0,0.0
11/10/2023,00:22:53,-0.000,0.0,0.0,0.0
11/10/2023,00:23:53,0.000,0.0,0.0,0.0
11/10/2023,00:24:53,0.000,0.0,0.0,0.0
11/10/2023,00:25:53,-0.000,0.0,0.0,0.0
11/10/2023,00:26:53,0.000,0.0,0.0,0.0
11/10/2023,00:27:53,0.000,0.0,0.0,0.0
11/10/2023,00:28:53,0.000,0.0,0.0,0.0
11/10/2023,00:29:53,0.000,0.0,0.0,0.0
11/10/2023,00:30:53,0.000,0.0,0.0,0.0
11/10/2023,00:31:53,0.000,0.0,0.0,0.0
11/10/2023,00:32:53,0.000,0.0,0.0,0.0
11/10/2023,00:33:53,-0.001,0.0,0.0,0.0
11/10/2023,00:34:53,0.000,0.0,0.0,0.0
11/10/2023,00:35:53,0.000,0.0,0.0,0.0
11/10/2023,00:36:54,0.000,0.0,0.0,0.0
11/10/2023,00:37:54,0.000,0.0,0.0,0.0
11/10/2023,00:38:53,-0.000,0.0,0.0,0.0
11/10/2023,00:39:53,0.000,0.0,0.0,0.0
11/10/2023,00:40:53,0.000,0.0,0.0,0.0
11/10/2023,00:41:53,0.000,0.0,0.0,0.0
11/10/2023,00:42:53,0.000,0.0,0.0,0.0
11/10/2023,00:43:54,0.000,0.0,0.0,0.0
11/10/2023,00:44:53,-0.000,0.0,0.0,0.0
11/10/2023,00:45:53,0.000,0.0,0.0,0.0
11/10/2023,00:46:54,0.000,0.0,0.0,0.0
11/10/2023,00:47:54,0.000,0.0,0.0,0.0
11/10/2023,00:48:54,0.000,0.0,0.0,0.0
11/10/2023,00:49:54,0.000,0.0,0.0,0.0
11/10/2023,00:50:54,0.000,0.0,0.0,0.0
11/10/2023,00:51:54,0.000,0.0,0.0,0.0
11/10/2023,00:52:54,0.000,0.0,0.0,0.0
11/10/2023,00:53:54,0.000,0.0,0.0,0.0
11/10/2023,00:54:54,0.000,0.0,0.0,0.0
11/10/2023,00:55:54,-0.001,0.0,0.0,0.0
11/10/2023,00:56:54,0.000,0.0,0.0,0.0
11/10/2023,00:57:54,0.000,0.0,0.0,0.0
11/10/2023,00:58:54,-0.001,0.0,0.0,0.0
11/10/2023,00:59:54,0.000,0.0,0.0,0.0
11/10/2023,01:00:54,0.000,0.0,0.0,0.0
11/10/2023,01:01:54,-0.001,0.0,0.0,0.0
11/10/2023,01:02:55,-0.000,0.0,0.0,0.0
11/10/2023,01:03:54,0.000,0.0,0.0,0.0
11/10/2023,01:04:55,0.000,0.0,0.0,0.0
11/10/2023,01:05:54,0.000,0.0,0.0,0.0
11/10/2023,01:06:54,0.000,0.0,0.0,0.0
11/10/2023,01:07:55,-0.000,0.0,0.0,0.0
11/10/2023,01:08:54,-0.000,0.0,0.0,0.0
11/10/2023,01:09:54,-0.000,0.0,0.0,0.0
11/10/2023,01:10:55,0.000,0.0,0.0,0.0
11/10/2023,01:11:55,0.000,0.0,0.0,0.0
11/10/2023,01:12:55,0.000,0.0,0.0,0.0
11/10/2023,01:13:55,0.000,0.0,0.0,0.0
11/10/2023,01:14:55,-0.000,0.0,0.0,0.0
11/10/2023,01:15:54,-0.000,0.0,0.0,0.0
11/10/2023,01:16:55,-0.000,0.0,0.0,0.0
11/10/2023,01:17:54,0.000,0.0,0.0,0.0
11/10/2023,01:18:54,0.000,0.0,0.0,0.0
11/10/2023,01:20:16,-0.000,0.0,0.0,0.0
11/10/2023,01:20:55,-0.000,0.0,0.0,0.0
11/10/2023,01:21:55,-0.000,0.0,0.0,0.0
11/10/2023,01:22:54,-0.001,0.0,0.0,0.0
11/10/2023,01:23:55,0.000,0.0,0.0,0.0
11/10/2023,01:24:55,0.000,0.0,0.0,0.0
11/10/2023,01:25:55,0.000,0.0,0.0,0.0
11/10/2023,01:26:55,-0.000,0.0,0.0,0.0
11/10/2023,01:27:55,-0.000,0.0,0.0,0.0
11/10/2023,01:28:55,0.000,0.0,0.0,0.0
11/10/2023,01:29:55,-0.000,0.0,0.0,0.0
11/10/2023,01:30:55,-0.000,0.0,0.0,0.0
11/10/2023,01:31:55,-0.000,0.0,0.0,0.0
11/10/2023,01:32:56,-0.000,0.0,0.0,0.0
11/10/2023,01:33:55,-0.000,0.0,0.0,0.0
11/10/2023,01:34:55,-0.000,0.0,0.0,0.0
11/10/2023,01:35:55,-0.000,0.0,0.0,0.0
11/10/2023,01:36:57,-0.000,0.0,0.0,0.0
11/10/2023,01:37:56,-0.000,0.0,0.0,0.0
11/10/2023,01:38:56,-0.000,0.0,0.0,0.0
11/10/2023,01:39:56,-0.000,0.0,0.0,0.0
11/10/2023,01:40:55,-0.000,0.0,0.0,0.0
11/10/2023,01:41:56,-0.001,0.0,0.0,0.0
11/10/2023,01:42:55,0.000,0.0,0.0,0.0
11/10/2023,01:43:56,-0.000,0.0,0.0,0.0
11/10/2023,01:44:55,-0.000,0.0,0.0,0.0
11/10/2023,01:45:55,0.000,0.0,0.0,0.0
11/10/2023,01:46:56,-0.000,0.0,0.0,0.0
11/10/2023,01:47:56,-0.000,0.0,0.0,0.0
11/10/2023,01:48:55,-0.001,0.0,0.0,0.0
11/10/2023,01:49:56,-0.000,0.0,0.0,0.0
11/10/2023,01:50:55,-0.000,0.0,0.0,0.0
11/10/2023,01:51:56,0.000,0.0,0.0,0.0
11/10/2023,01:52:56,-0.000,0.0,0.0,0.0
11/10/2023,01:53:55,-0.000,0.0,0.0,0.0
11/10/2023,01:54:56,-0.000,0.0,0.0,0.0
11/10/2023,01:55:56,-0.001,0.0,0.0,0.0
11/10/2023,01:56:56,0.000,0.0,0.0,0.0
11/10/2023,01:57:56,-0.000,0.0,0.0,0.0
11/10/2023,01:58:56,0.000,0.0,0.0,0.0
11/10/2023,01:59:56,-0.000,0.0,0.0,0.0
11/10/2023,02:00:56,-0.000,0.0,0.0,0.0
11/10/2023,02:01:56,-0.001,0.0,0.0,0.0
11/10/2023,02:02:56,-0.000,0.0,0.0,0.0
11/10/2023,02:03:56,0.000,0.0,0.0,0.0
11/10/2023,02:04:56,-0.001,0.0,0.0,0.0
11/10/2023,02:05:56,0.000,0.0,0.0,0.0
11/10/2023,02:06:56,-0.001,0.0,0.0,0.0
11/10/2023,02:07:56,0.000,0.0,0.0,0.0
11/10/2023,02:08:57,-0.001,0.0,0.0,0.0
11/10/2023,02:09:56,-0.000,0.0,0.0,0.0
11/10/2023,02:10:56,0.000,0.0,0.0,0.0
11/10/2023,02:11:56,-0.000,0.0,0.0,0.0
11/10/2023,02:12:57,-0.000,0.0,0.0,0.0
11/10/2023,02:13:57,0.000,0.0,0.0,0.0
11/10/2023,02:14:55,-0.000,0.0,0.0,0.0
11/10/2023,02:16:18,-0.001,0.0,0.0,0.0
11/10/2023,02:16:57,0.000,0.0,0.0,0.0
11/10/2023,02:17:56,0.000,0.0,0.0,0.0
11/10/2023,02:18:56,-0.000,0.0,0.0,0.0
11/10/2023,02:19:57,-0.000,0.0,0.0,0.0
11/10/2023,02:20:56,-0.000,0.0,0.0,0.0
11/10/2023,02:21:57,-0.000,0.0,0.0,0.0
11/10/2023,02:22:56,-0.000,0.0,0.0,0.0
11/10/2023,02:23:58,-0.000,0.0,0.0,0.0
11/10/2023,02:24:57,-0.000,0.0,0.0,0.0
11/10/2023,02:25:57,-0.000,0.0,0.0,0.0
11/10/2023,02:26:57,-0.000,0.0,0.0,0.0
11/10/2023,02:27:57,-0.000,0.0,0.0,0.0
11/10/2023,02:28:57,-0.000,0.0,0.0,0.0
11/10/2023,02:29:57,-0.000,0.0,0.0,0.0
11/10/2023,02:30:58,-0.000,0.0,0.0,0.0
11/10/2023,02:31:57,-0.000,0.0,0.0,0.0
11/10/2023,02:32:57,0.000,0.0,0.0,0.0
11/10/2023,02:33:57,-0.000,0.0,0.0,0.0
11/10/2023,02:34:58,-0.000,0.0,0.0,0.0
11/10/2023,02:35:57,-0.001,0.0,0.0,0.0
11/10/2023,02:36:57,-0.000,0.0,0.0,0.0
11/10/2023,02:37:57,-0.000,0.0,0.0,0.0
11/10/2023,02:38:57,-0.000,0.0,0.0,0.0
11/10/2023,02:39:58,-0.000,0.0,0.0,0.0
11/10/2023,02:40:58,-0.000,0.0,0.0,0.0
11/10/2023,02:41:57,-0.001,0.0,0.0,0.0
11/10/2023,02:42:57,0.000,0.0,0.0,0.0
11/10/2023,02:43:58,-0.000,0.0,0.0,0.0
11/10/2023,02:44:57,-0.000,0.0,0.0,0.0
11/10/2023,02:45:58,-0.001,0.0,0.0,0.0
11/10/2023,02:46:58,0.000,0.0,0.0,0.0
11/10/2023,02:47:57,-0.000,0.0,0.0,0.0
11/10/2023,02:48:57,-0.000,0.0,0.0,0.0
11/10/2023,02:49:58,-0.000,0.0,0.0,0.0
11/10/2023,02:50:57,-0.000,0.0,0.0,0.0
11/10/2023,02:51:58,-0.001,0.0,0.0,0.0
11/10/2023,02:52:58,-0.001,0.0,0.0,0.0
11/10/2023,02:53:58,-0.000,0.0,0.0,0.0
11/10/2023,02:54:58,-0.000,0.0,0.0,0.0
11/10/2023,02:55:58,-0.000,0.0,0.0,0.0
11/10/2023,02:56:58,-0.000,0.0,0.0,0.0
11/10/2023,02:57:58,-0.000,0.0,0.0,0.0
11/10/2023,02:58:59,-0.001,0.0,0.0,0.0
11/10/2023,02:59:58,-0.000,0.0,0.0,0.0
11/10/2023,03:00:58,-0.000,0.0,0.0,0.0
11/10/2023,03:01:58,-0.000,0.0,0.0,0.0
11/10/2023,03:02:59,-0.000,0.0,0.0,0.0
11/10/2023,03:03:58,-0.000,0.0,0.0,0.0
11/10/2023,03:04:59,-0.000,0.0,0.0,0.0
11/10/2023,03:05:58,0.000,0.0,0.0,0.0
11/10/2023,03:06:58,0.000,0.0,0.0,0.0
11/10/2023,03:07:58,0.000,0.0,0.0,0.0
11/10/2023,03:08:59,-0.000,0.0,0.0,0.0
11/10/2023,03:09:59,0.000,0.0,0.0,0.0
11/10/2023,03:10:58,-0.001,0.0,0.0,0.0
11/10/2023,03:11:59,-0.000,0.0,0.0,0.0
11/10/2023,03:12:58,-0.000,0.0,0.0,0.0
11/10/2023,03:13:59,-0.000,0.0,0.0,0.0
11/10/2023,03:14:59,0.000,0.0,0.0,0.0
11/10/2023,03:15:58,0.000,0.0,0.0,0.0
11/10/2023,03:16:59,-0.000,0.0,0.0,0.0
11/10/2023,03:17:59,0.000,0.0,0.0,0.0
11/10/2023,03:18:58,0.000,0.0,0.0,0.0
11/10/2023,03:19:59,-0.000,0.0,0.0,0.0
11/10/2023,03:20:59,-0.000,0.0,0.0,0.0
11/10/2023,03:21:59,-0.000,0.0,0.0,0.0
11/10/2023,03:22:59,0.000,0.0,0.0,0.0
11/10/2023,03:23:59,-0.000,0.0,0.0,0.0
11/10/2023,03:24:59,-0.000,0.0,0.0,0.0
11/10/2023,03:25:58,-0.000,0.0,0.0,0.0
11/10/2023,03:26:59,-0.000,0.0,0.0,0.0
11/10/2023,03:27:59,-0.002,0.0,0.0,0.0
11/10/2023,03:28:59,-0.000,0.0,0.0,0.0
11/10/2023,03:29:59,-0.001,0.0,0.0,0.0
11/10/2023,03:30:59,-0.001,0.0,0.0,0.0
11/10/2023,03:31:59,-0.000,0.0,0.0,0.0
11/10/2023,03:33:00,0.000,0.0,0.0,0.0
11/10/2023,03:33:59,-0.000,0.0,0.0,0.0
11/10/2023,03:35:00,-0.001,0.0,0.0,0.0
11/10/2023,03:35:59,0.000,0.0,0.0,0.0
11/10/2023,03:36:59,-0.000,0.0,0.0,0.0
11/10/2023,03:37:59,-0.000,0.0,0.0,0.0
11/10/2023,03:39:00,-0.000,0.0,0.0,0.0
11/10/2023,03:39:59,-0.000,0.0,0.0,0.0
11/10/2023,03:40:59,-0.000,0.0,0.0,0.0
11/10/2023,03:42:00,0.000,0.0,0.0,0.0
11/10/2023,03:42:59,-0.000,0.0,0.0,0.0
11/10/2023,03:44:00,-0.000,0.0,0.0,0.0
11/10/2023,03:44:59,-0.001,0.0,0.0,0.0
11/10/2023,03:46:00,-0.001,0.0,0.0,0.0
11/10/2023,03:46:59,-0.001,0.0,0.0,0.0
11/10/2023,03:48:00,-0.000,0.0,0.0,0.0
11/10/2023,03:49:00,0.000,0.0,0.0,0.0
11/10/2023,03:49:59,-0.001,0.0,0.0,0.0
11/10/2023,03:51:00,-0.001,0.0,0.0,0.0
11/10/2023,03:52:00,-0.000,0.0,0.0,0.0
11/10/2023,03:53:00,-0.000,0.0,0.0,0.0
11/10/2023,03:53:59,-0.000,0.0,0.0,0.0
11/10/2023,03:55:00,-0.000,0.0,0.0,0.0
11/10/2023,03:56:00,-0.001,0.0,0.0,0.0
11/10/2023,03:57:00,-0.000,0.0,0.0,0.0
11/10/2023,03:58:00,-0.001,0.0,0.0,0.0
11/10/2023,03:59:04,-0.001,0.0,0.0,0.0
11/10/2023,04:00:01,0.000,0.0,0.0,0.0
11/10/2023,04:01:00,-0.001,0.0,0.0,0.0
11/10/2023,04:02:00,0.000,0.0,0.0,0.0
11/10/2023,04:03:00,-0.001,0.0,0.0,0.0
11/10/2023,04:04:00,-0.000,0.0,0.0,0.0
11/10/2023,04:05:00,-0.000,0.0,0.0,0.0
11/10/2023,04:06:01,-0.000,0.0,0.0,0.0
11/10/2023,04:07:01,-0.000,0.0,0.0,0.0
11/10/2023,04:08:00,-0.000,0.0,0.0,0.0
11/10/2023,04:09:01,-0.000,0.0,0.0,0.0
11/10/2023,04:10:00,-0.000,0.0,0.0,0.0
11/10/2023,04:11:00,0.000,0.0,0.0,0.0
11/10/2023,04:12:00,-0.000,0.0,0.0,0.0
11/10/2023,04:13:00,0.000,0.0,0.0,0.0
11/10/2023,04:14:01,-0.000,0.0,0.0,0.0
11/10/2023,04:15:00,-0.001,0.0,0.0,0.0
11/10/2023,04:16:01,-0.001,0.0,0.0,0.0
11/10/2023,04:17:00,-0.001,0.0,0.0,0.0
11/10/2023,04:18:01,-0.000,0.0,0.0,0.0
11/10/2023,04:19:01,-0.000,0.0,0.0,0.0
11/10/2023,04:20:01,-0.001,0.0,0.0,0.0
11/10/2023,04:21:01,-0.000,0.0,0.0,0.0
11/10/2023,04:22:01,0.000,0.0,0.0,0.0
11/10/2023,04:23:01,-0.000,0.0,0.0,0.0
11/10/2023,04:24:00,-0.000,0.0,0.0,0.0
11/10/2023,04:25:01,-0.001,0.0,0.0,0.0
11/10/2023,04:26:01,-0.001,0.0,0.0,0.0
11/10/2023,04:27:01,-0.001,0.0,0.0,0.0
11/10/2023,04:28:01,-0.001,0.0,0.0,0.0
11/10/2023,04:29:01,-0.001,0.0,0.0,0.0
11/10/2023,04:30:01,0.000,0.0,0.0,0.0
11/10/2023,04:31:01,-0.001,0.0,0.0,0.0
11/10/2023,04:32:01,-0.001,0.0,0.0,0.0
11/10/2023,04:33:01,-0.002,0.0,0.0,0.0
11/10/2023,04:34:02,-0.001,0.0,0.0,0.0
11/10/2023,04:35:01,-0.001,0.0,0.0,0.0
11/10/2023,04:36:01,-0.001,0.0,0.0,0.0
11/10/2023,04:37:01,0.000,0.0,0.0,0.0
11/10/2023,04:38:01,-0.001,0.0,0.0,0.0
11/10/2023,04:39:01,-0.001,0.0,0.0,0.0
11/10/2023,04:40:02,-0.000,0.0,0.0,0.0
11/10/2023,04:41:02,-0.001,0.0,0.0,0.0
11/10/2023,04:42:01,-0.001,0.0,0.0,0.0
11/10/2023,04:43:02,0.000,0.0,0.0,0.0
11/10/2023,04:44:02,-0.001,0.0,0.0,0.0
11/10/2023,04:45:02,-0.001,0.0,0.0,0.0
11/10/2023,04:46:01,0.000,0.0,0.0,0.0
11/10/2023,04:47:02,-0.001,0.0,0.0,0.0
11/10/2023,04:48:01,-0.000,0.0,0.0,0.0
11/10/2023,04:49:02,-0.001,0.0,0.0,0.0
11/10/2023,04:50:01,-0.001,0.0,0.0,0.0
11/10/2023,04:51:02,-0.002,0.0,0.0,0.0
11/10/2023,04:52:02,-0.001,0.0,0.0,0.0
11/10/2023,04:53:02,-0.002,0.0,0.0,0.0
11/10/2023,04:54:02,-0.001,0.0,0.0,0.0
11/10/2023,04:55:02,-0.001,0.0,0.0,0.0
11/10/2023,04:56:02,-0.001,0.0,0.0,0.0
11/10/2023,04:57:02,-0.001,0.0,0.0,0.0
11/10/2023,04:58:02,-0.001,0.0,0.0,0.0
11/10/2023,04:59:02,0.000,0.0,0.0,0.0
11/10/2023,05:00:03,-0.001,0.0,0.0,0.0
11/10/2023,05:01:02,-0.000,0.0,0.0,0.0
11/10/2023,05:02:03,-0.001,0.0,0.0,0.0
11/10/2023,05:03:02,-0.001,0.0,0.0,0.0
11/10/2023,05:04:02,-0.001,0.0,0.0,0.0
11/10/2023,05:05:02,-0.001,0.0,0.0,0.0
11/10/2023,05:06:02,-0.001,0.0,0.0,0.0
11/10/2023,05:07:02,-0.001,0.0,0.0,0.0
11/10/2023,05:08:02,-0.001,0.0,0.0,0.0
11/10/2023,05:09:02,-0.001,0.0,0.0,0.0
11/10/2023,05:10:03,-0.001,0.0,0.0,0.0
11/10/2023,05:11:03,-0.001,0.0,0.0,0.0
11/10/2023,05:12:02,-0.001,0.0,0.0,0.0
11/10/2023,05:13:02,-0.001,0.0,0.0,0.0
11/10/2023,05:14:03,-0.002,0.0,0.0,0.0
11/10/2023,05:15:02,0.000,0.0,0.0,0.0
11/10/2023,05:16:02,-0.001,0.0,0.0,0.0
11/10/2023,05:17:03,-0.001,0.0,0.0,0.0
11/10/2023,05:18:03,0.000,0.0,0.0,0.0
11/10/2023,05:19:03,-0.001,0.0,0.0,0.0
11/10/2023,05:20:03,-0.001,0.0,0.0,0.0
11/10/2023,05:21:02,-0.001,0.0,0.0,0.0
11/10/2023,05:22:03,-0.001,0.0,0.0,0.0
11/10/2023,05:23:03,-0.001,0.0,0.0,0.0
11/10/2023,05:24:02,-0.001,0.0,0.0,0.0
11/10/2023,05:25:03,-0.001,0.0,0.0,0.0
11/10/2023,05:26:03,-0.001,0.0,0.0,0.0
11/10/2023,05:27:03,-0.001,0.0,0.0,0.0
11/10/2023,05:28:03,0.000,0.0,0.0,0.0
11/10/2023,05:29:03,0.000,0.0,0.0,0.0
11/10/2023,05:30:03,-0.001,0.0,0.0,0.0
11/10/2023,05:31:04,0.000,0.0,0.0,0.0
11/10/2023,05:32:03,-0.001,0.0,0.0,0.0
11/10/2023,05:33:04,-0.001,0.0,0.0,0.0
11/10/2023,05:34:03,-0.001,0.0,0.0,0.0
11/10/2023,05:35:04,-0.001,0.0,0.0,0.0
11/10/2023,05:36:03,-0.001,0.0,0.0,0.0
11/10/2023,05:37:04,-0.001,0.0,0.0,0.0
11/10/2023,05:38:03,-0.001,0.0,0.0,0.0
11/10/2023,05:39:03,-0.001,0.0,0.0,0.0
11/10/2023,05:40:04,-0.001,0.0,0.0,0.0
11/10/2023,05:41:03,-0.001,0.0,0.0,0.0
11/10/2023,05:42:03,-0.001,0.0,0.0,0.0
11/10/2023,05:43:04,-0.002,0.0,0.0,0.0
11/10/2023,05:44:04,-0.001,0.0,0.0,0.0
11/10/2023,05:45:03,-0.002,0.0,0.0,0.0
11/10/2023,05:46:03,-0.001,0.0,0.0,0.0
11/10/2023,05:47:04,-0.001,0.0,0.0,0.0
11/10/2023,05:48:07,-0.000,0.0,0.0,0.0
11/10/2023,05:49:04,0.000,0.0,0.0,0.0
11/10/2023,05:50:04,-0.001,0.0,0.0,0.0
11/10/2023,05:51:04,-0.001,0.0,0.0,0.0
11/10/2023,05:52:04,-0.000,0.0,0.0,0.0
11/10/2023,05:53:04,-0.000,0.0,0.0,0.0
11/10/2023,05:54:04,-0.001,0.0,0.0,0.0
11/10/2023,05:55:04,-0.000,0.0,0.0,0.0
11/10/2023,05:56:04,-0.000,0.0,0.0,0.0
11/10/2023,05:57:04,0.000,0.0,0.0,0.0
11/10/2023,05:58:04,-0.000,0.0,0.0,0.0
11/10/2023,05:59:04,0.000,0.0,0.0,0.0
11/10/2023,06:00:04,-0.001,0.0,0.0,0.0
11/10/2023,06:01:04,-0.001,0.0,0.0,0.0
11/10/2023,06:02:04,0.000,0.0,0.0,0.0
11/10/2023,06:03:04,-0.001,0.0,0.0,0.0
11/10/2023,06:04:04,-0.001,0.0,0.0,0.0
11/10/2023,06:05:05,-0.001,0.0,0.0,0.0
11/10/2023,06:06:04,-0.001,0.0,0.0,0.0
11/10/2023,06:07:04,-0.001,0.0,0.0,0.0
11/10/2023,06:08:04,-0.001,0.0,0.0,0.0
11/10/2023,06:09:04,-0.000,0.0,0.0,0.0
11/10/2023,06:10:04,-0.001,0.0,0.0,0.0
11/10/2023,06:11:04,-0.001,0.0,0.0,0.0
11/10/2023,06:12:04,-0.001,0.0,0.0,0.0
11/10/2023,06:13:05,-0.000,0.0,0.0,0.0
11/10/2023,06:14:05,-0.001,0.0,0.0,0.0
11/10/2023,06:15:05,0.000,0.0,0.0,0.0
11/10/2023,06:16:05,-0.000,0.0,0.0,0.0
11/10/2023,06:17:05,-0.000,0.0,0.0,0.0
11/10/2023,06:18:04,-0.000,0.0,0.0,0.0
11/10/2023,06:19:05,0.000,0.0,0.0,0.0
11/10/2023,06:20:05,-0.000,0.0,0.0,0.0
11/10/2023,06:21:05,0.000,0.0,0.0,0.0
11/10/2023,06:22:05,-0.000,0.0,0.0,0.0
11/10/2023,06:23:05,-0.001,0.0,0.0,0.0
11/10/2023,06:24:05,0.000,0.0,0.0,0.0
11/10/2023,06:25:05,0.000,0.0,0.0,0.0
11/10/2023,06:26:05,0.000,0.0,0.0,0.0
11/10/2023,06:27:05,0.000,0.0,0.0,0.0
11/10/2023,06:28:05,0.000,0.0,0.0,0.0
11/10/2023,06:29:05,0.000,0.0,0.0,0.0
11/10/2023,06:30:05,0.000,0.0,0.0,0.0
11/10/2023,06:31:05,0.000,0.0,0.0,0.0
11/10/2023,06:32:05,0.000,0.0,0.0,0.0
11/10/2023,06:33:06,0.000,0.0,0.0,0.0
11/10/2023,06:34:05,0.001,0.0,0.0,0.0
11/10/2023,06:35:05,0.002,0.0,0.0,0.0
11/10/2023,06:36:05,0.001,0.0,0.0,0.0
11/10/2023,06:37:05,0.001,0.0,0.0,0.0
11/10/2023,06:38:06,0.001,0.0,0.0,0.0
11/10/2023,06:39:06,0.002,0.0,0.0,0.0
11/10/2023,06:40:05,0.002,0.0,0.0,0.0
11/10/2023,06:41:09,0.002,0.0,0.0,0.0
11/10/2023,06:42:06,0.003,0.0,0.0,0.0
11/10/2023,06:43:06,0.003,0.0,0.0,0.0
11/10/2023,06:44:05,0.003,0.0,0.0,0.0
11/10/2023,06:45:05,0.002,0.0,0.0,0.0
11/10/2023,06:46:06,0.002,0.0,0.0,0.0
11/10/2023,06:47:06,0.004,0.0,0.0,0.0
11/10/2023,06:48:05,0.003,0.0,0.0,0.0
11/10/2023,06:49:06,0.003,0.0,0.0,0.0
11/10/2023,06:50:06,0.004,0.0,0.0,0.0
11/10/2023,06:51:05,0.004,0.0,0.0,0.0
11/10/2023,06:52:06,0.004,0.0,0.0,0.0
11/10/2023,06:53:06,0.004,0.0,0.0,0.0
11/10/2023,06:54:06,0.004,0.0,0.0,0.0
11/10/2023,06:55:06,0.004,0.0,0.0,0.0
11/10/2023,06:56:06,0.005,0.0,0.0,0.0
11/10/2023,06:57:06,0.005,0.0,0.0,0.0
11/10/2023,06:58:06,0.005,0.0,0.0,0.0
11/10/2023,06:59:06,0.006,0.0,0.0,0.0
11/10/2023,07:00:07,0.005,0.0,0.0,0.0
11/10/2023,07:01:06,0.006,0.0,0.0,0.0
11/10/2023,07:02:06,0.005,0.0,0.0,0.0
11/10/2023,07:03:06,0.005,0.0,0.0,0.0
11/10/2023,07:04:07,0.007,0.0,0.0,0.0
11/10/2023,07:05:06,0.007,0.0,0.0,0.0
11/10/2023,07:06:07,0.009,0.0,0.0,0.0
11/10/2023,07:07:06,0.010,0.0,0.0,0.0
11/10/2023,07:08:06,0.013,0.0,0.001,0.001
11/10/2023,07:09:06,0.015,0.0,0.001,0.0
11/10/2023,07:10:07,0.015,0.0,0.001,0.0
11/10/2023,07:11:06,0.013,0.0,0.001,0.0
11/10/2023,07:12:07,0.014,0.0,0.002,0.001
11/10/2023,07:13:06,0.014,0.0,0.002,0.0
11/10/2023,07:14:06,0.012,0.0,0.002,0.0
11/10/2023,07:15:07,0.011,0.0,0.002,0.0
11/10/2023,07:16:07,0.010,0.0,0.002,0.0
11/10/2023,07:17:06,0.009,0.0,0.003,0.001
11/10/2023,07:18:07,0.009,0.0,0.003,0.0
11/10/2023,07:19:07,0.009,0.0,0.003,0.0
11/10/2023,07:20:06,0.009,0.0,0.003,0.0
11/10/2023,07:21:06,0.009,0.0,0.003,0.0
11/10/2023,07:22:07,0.009,0.0,0.003,0.0
11/10/2023,07:23:07,0.010,0.0,0.004,0.001
11/10/2023,07:24:07,0.012,0.0,0.004,0.0
11/10/2023,07:25:07,0.014,0.0,0.004,0.0
11/10/2023,07:26:09,0.015,0.0,0.004,0.0
11/10/2023,07:27:07,0.015,0.0,0.004,0.0
11/10/2023,07:28:07,0.016,0.0,0.005,0.001
11/10/2023,07:29:07,0.015,0.0,0.005,0.0
11/10/2023,07:30:07,0.016,0.0,0.005,0.0
11/10/2023,07:31:08,0.018,0.0,0.005,0.0
11/10/2023,07:32:07,0.022,0.0,0.006,0.001
11/10/2023,07:33:07,0.023,0.0,0.006,0.0
11/10/2023,07:34:07,0.026,0.0,0.007,0.001
11/10/2023,07:35:08,0.023,0.0,0.007,0.0
11/10/2023,07:36:07,0.020,0.0,0.007,0.0
11/10/2023,07:37:07,0.021,0.0,0.008,0.001
11/10/2023,07:38:07,0.021,0.0,0.008,0.0
11/10/2023,07:39:07,0.021,0.0,0.008,0.0
11/10/2023,07:40:08,0.022,0.0,0.009,0.001
11/10/2023,07:41:07,0.022,0.0,0.009,0.0
11/10/2023,07:42:08,0.019,0.0,0.009,0.0
11/10/2023,07:43:08,0.020,0.0,0.01,0.001
11/10/2023,07:44:07,0.021,0.0,0.01,0.0
11/10/2023,07:45:07,0.022,0.0,0.011,0.001
11/10/2023,07:46:07,0.026,0.0,0.011,0.0
11/10/2023,07:47:08,0.027,0.0,0.011,0.0
11/10/2023,07:48:08,0.029,0.0,0.012,0.001
11/10/2023,07:49:08,0.033,0.0,0.012,0.0
11/10/2023,07:50:08,0.034,0.0,0.013,0.001
11/10/2023,07:51:07,0.030,0.0,0.013,0.0
11/10/2023,07:52:08,0.029,0.0,0.014,0.001
11/10/2023,07:53:08,0.026,0.0,0.014,0.0
11/10/2023,07:54:08,0.026,0.0,0.015,0.001
11/10/2023,07:55:08,0.027,0.0,0.015,0.0
11/10/2023,07:56:08,0.030,0.0,0.016,0.001
11/10/2023,07:57:08,0.033,0.0,0.016,0.0
11/10/2023,07:58:08,0.037,0.0,0.017,0.001
11/10/2023,07:59:08,0.038,0.0,0.018,0.001
11/10/2023,08:00:08,0.034,0.0,0.018,0.0
11/10/2023,08:01:06,0.033,0.0,0.019,0.001
11/10/2023,08:02:08,0.037,0.0,0.019,0.0
11/10/2023,08:03:09,0.039,0.0,0.02,0.001
11/10/2023,08:04:08,0.041,0.0,0.021,0.001
11/10/2023,08:05:08,0.047,0.0,0.021,0.0
11/10/2023,08:06:08,0.053,0.0,0.022,0.001
11/10/2023,08:07:09,0.049,0.0,0.023,0.001
11/10/2023,08:08:09,0.053,0.0,0.024,0.001
11/10/2023,08:09:08,0.048,0.0,0.025,0.001
11/10/2023,08:10:09,0.055,0.0,0.026,0.001
11/10/2023,08:11:08,0.054,0.0,0.026,0.0
11/10/2023,08:12:08,0.057,0.0,0.027,0.001
11/10/2023,08:13:09,0.059,0.0,0.028,0.001
11/10/2023,08:14:09,0.065,0.0,0.029,0.001
11/10/2023,08:15:08,0.074,0.0,0.031,0.002
11/10/2023,08:16:09,0.076,0.0,0.032,0.001
11/10/2023,08:17:08,0.063,0.0,0.033,0.001
11/10/2023,08:18:09,0.076,0.0,0.034,0.001
11/10/2023,08:19:08,0.072,0.0,0.035,0.001
11/10/2023,08:20:09,0.065,0.0,0.037,0.002
11/10/2023,08:21:09,0.072,0.0,0.038,0.001
11/10/2023,08:22:08,0.069,0.0,0.039,0.001
11/10/2023,08:23:09,0.066,0.0,0.04,0.001
11/10/2023,08:24:09,0.070,0.0,0.041,0.001
11/10/2023,08:25:09,0.068,0.0,0.042,0.001
11/10/2023,08:26:09,0.073,0.0,0.043,0.001
11/10/2023,08:27:09,0.072,0.0,0.045,0.002
11/10/2023,08:28:09,0.076,0.0,0.046,0.001
11/10/2023,08:29:09,0.087,0.0,0.047,0.001
11/10/2023,08:30:10,0.085,0.0,0.049,0.002
11/10/2023,08:31:09,0.085,0.0,0.05,0.001
11/10/2023,08:32:09,0.083,0.0,0.052,0.002
11/10/2023,08:33:09,0.091,0.0,0.053,0.001
11/10/2023,08:34:09,0.093,0.0,0.055,0.002
11/10/2023,08:35:10,0.099,0.0,0.056,0.001
11/10/2023,08:36:09,0.105,0.0,0.058,0.002
11/10/2023,08:37:09,0.110,0.0,0.06,0.002
11/10/2023,08:38:09,0.107,0.0,0.061,0.001
11/10/2023,08:39:12,0.106,0.0,0.063,0.002
11/10/2023,08:40:09,0.099,0.0,0.065,0.002
11/10/2023,08:41:10,0.107,0.0,0.067,0.002
11/10/2023,08:42:09,0.105,0.0,0.069,0.002
11/10/2023,08:43:09,0.110,0.0,0.07,0.001
11/10/2023,08:44:10,0.113,0.0,0.072,0.002
11/10/2023,08:45:09,0.110,0.0,0.074,0.002
11/10/2023,08:46:08,0.109,0.0,0.076,0.002
11/10/2023,08:47:11,0.108,0.0,0.078,0.002
11/10/2023,08:48:10,0.107,0.0,0.079,0.001
11/10/2023,08:49:10,0.111,0.0,0.081,0.002
11/10/2023,08:50:10,0.118,0.0,0.083,0.002
11/10/2023,08:51:10,0.116,0.0,0.085,0.002
11/10/2023,08:52:10,0.111,0.0,0.087,0.002
11/10/2023,08:53:10,0.106,0.0,0.089,0.002
11/10/2023,08:54:10,0.112,0.0,0.091,0.002
11/10/2023,08:55:09,0.112,0.0,0.093,0.002
11/10/2023,08:56:10,0.121,0.0,0.094,0.001
11/10/2023,08:57:10,0.120,0.0,0.096,0.002
11/10/2023,08:58:10,0.127,0.0,0.099,0.003
11/10/2023,08:59:10,0.126,0.0,0.101,0.002
11/10/2023,09:00:10,0.135,0.0,0.103,0.002
11/10/2023,09:01:10,0.138,0.0,0.105,0.002
11/10/2023,09:02:10,0.137,0.0,0.107,0.002
11/10/2023,09:03:10,0.135,0.0,0.11,0.003
11/10/2023,09:04:11,0.141,0.0,0.112,0.002
11/10/2023,09:05:11,0.149,0.0,0.114,0.002
11/10/2023,09:06:10,0.155,0.0,0.117,0.003
11/10/2023,09:07:10,0.162,0.0,0.12,0.003
11/10/2023,09:08:11,0.165,0.0,0.122,0.002
11/10/2023,09:09:11,0.171,0.0,0.125,0.003
11/10/2023,09:10:10,0.181,0.0,0.128,0.003
11/10/2023,09:11:11,0.183,0.0,0.131,0.003
11/10/2023,09:12:10,0.195,0.0,0.134,0.003
11/10/2023,09:13:10,0.196,0.0,0.137,0.003
11/10/2023,09:14:11,0.180,0.0,0.141,0.004
11/10/2023,09:15:11,0.187,0.0,0.144,0.003
11/10/2023,09:16:10,0.202,0.0,0.147,0.003
11/10/2023,09:17:11,0.185,0.0,0.15,0.003
11/10/2023,09:18:11,0.179,0.0,0.153,0.003
11/10/2023,09:19:11,0.184,0.0,0.156,0.003
11/10/2023,09:20:11,0.178,0.0,0.159,0.003
11/10/2023,09:21:11,0.182,0.0,0.162,0.003
11/10/2023,09:22:10,0.190,0.0,0.165,0.003
11/10/2023,09:23:10,0.203,0.0,0.169,0.004
11/10/2023,09:24:11,0.212,0.0,0.172,0.003
11/10/2023,09:25:11,0.218,1.0,0.176,0.004
11/10/2023,09:26:11,0.219,1.0,0.179,0.003
11/10/2023,09:27:10,0.238,1.0,0.183,0.004
11/10/2023,09:28:11,0.236,1.0,0.187,0.004
11/10/2023,09:29:11,0.221,1.0,0.191,0.004
11/10/2023,09:30:12,0.232,1.0,0.195,0.004
11/10/2023,09:31:11,0.231,1.0,0.198,0.003
11/10/2023,09:32:11,0.222,1.0,0.202,0.004
11/10/2023,09:33:11,0.242,1.0,0.206,0.004
11/10/2023,09:34:12,0.250,1.0,0.21,0.004
11/10/2023,09:35:11,0.264,1.0,0.214,0.004
11/10/2023,09:36:11,0.265,1.0,0.219,0.005
11/10/2023,09:37:11,0.266,1.0,0.223,0.004
11/10/2023,09:38:11,0.271,1.0,0.228,0.005
11/10/2023,09:39:12,0.283,1.0,0.232,0.004
11/10/2023,09:40:11,0.302,1.0,0.237,0.005
11/10/2023,09:41:11,0.309,1.0,0.242,0.005
11/10/2023,09:42:12,0.327,1.0,0.248,0.006
11/10/2023,09:43:11,0.329,1.0,0.253,0.005
11/10/2023,09:44:11,0.324,1.0,0.259,0.006
11/10/2023,09:45:11,0.296,1.0,0.264,0.005
11/10/2023,09:46:12,0.273,1.0,0.269,0.005
11/10/2023,09:47:12,0.282,1.0,0.273,0.004
11/10/2023,09:48:11,0.274,1.0,0.278,0.005
11/10/2023,09:49:11,0.282,1.0,0.282,0.004
11/10/2023,09:50:12,0.293,1.0,0.287,0.005
11/10/2023,09:51:11,0.298,1.0,0.292,0.005
11/10/2023,09:52:12,0.332,1.0,0.297,0.005
11/10/2023,09:53:11,0.332,1.0,0.303,0.006
11/10/2023,09:54:12,0.328,1.0,0.308,0.005
11/10/2023,09:55:12,0.333,1.0,0.314,0.006
11/10/2023,09:56:12,0.333,1.0,0.319,0.005
11/10/2023,09:57:12,0.360,1.0,0.325,0.006
11/10/2023,09:58:12,0.338,1.0,0.331,0.006
11/10/2023,09:59:12,0.355,1.0,0.337,0.006
11/10/2023,10:00:12,0.360,1.0,0.343,0.006
11/10/2023,10:01:12,0.333,1.0,0.349,0.006
11/10/2023,10:02:12,0.321,1.0,0.354,0.005
11/10/2023,10:03:13,0.331,1.0,0.359,0.005
11/10/2023,10:04:12,0.336,1.0,0.365,0.006
11/10/2023,10:05:12,0.360,1.0,0.371,0.006
11/10/2023,10:06:12,0.374,1.0,0.377,0.006
11/10/2023,10:07:12,0.372,1.0,0.383,0.006